| time (UTC) | temp F | wind direction | speed knots | gust knots | rain 1hr in | rain 24hr in | rain mn in | humidity % | barometer mb |
| 20260831111012 | 73 | 236 | 6.1 | 15.6 | 0.00 | 0.34 | 0.34 | 55 | 1015.9 |
| 20260831110013 | 73 | 181 | 6.1 | 16.5 | 0.00 | 0.34 | 0.34 | 54 | 1015.6 |
| 20260831105013 | 73 | 248 | 6.1 | 20.0 | 0.00 | 0.34 | 0.34 | 56 | 1015.8 |
| 20260831104013 | 72 | 201 | 7.0 | 14.8 | 0.00 | 0.34 | 0.34 | 63 | 1015.7 |
| 20260831103013 | 72 | 216 | 7.0 | 18.2 | 0.00 | 0.34 | 0.34 | 64 | 1015.9 |
| 20260831102012 | 72 | 297 | 7.0 | 15.6 | 0.00 | 0.34 | 0.34 | 69 | 1015.8 |
| 20260831101012 | 71 | 221 | 6.1 | 13.0 | 0.00 | 0.34 | 0.34 | 67 | 1016.0 |
| 20260831100012 | 71 | 258 | 7.8 | 16.5 | 0.00 | 0.34 | 0.34 | 69 | 1016.1 |
| 20260831095012 | 71 | 259 | 7.0 | 15.6 | 0.00 | 0.34 | 0.34 | 67 | 1016.3 |
| 20260831094012 | 70 | 221 | 6.1 | 16.5 | 0.00 | 0.34 | 0.34 | 75 | 1016.1 |
| 20260831093012 | 69 | 245 | 6.1 | 16.5 | 0.00 | 0.34 | 0.34 | 74 | 1016.1 |
| 20260831092012 | 68 | 263 | 5.2 | 14.8 | 0.00 | 0.34 | 0.34 | 73 | 1016.2 |
| 20260831091012 | 67 | 279 | 7.8 | 14.8 | 0.00 | 0.34 | 0.34 | 73 | 1016.1 |
| 20260831090012 | 68 | 274 | 6.1 | 13.9 | 0.00 | 0.34 | 0.34 | 76 | 1016.1 |
| 20260831085012 | 66 | 248 | 6.1 | 16.5 | 0.00 | 0.34 | 0.34 | 77 | 1016.1 |
| 20260831084012 | 66 | 250 | 7.8 | 16.5 | 0.00 | 0.34 | 0.34 | 76 | 1016.0 |
| 20260831083012 | 67 | 263 | 7.8 | 14.8 | 0.00 | 0.34 | 0.34 | 76 | 1015.9 |
| 20260831082012 | 67 | 188 | 6.1 | 15.6 | 0.00 | 0.34 | 0.34 | 81 | 1015.8 |
| 20260831081012 | 67 | 280 | 4.3 | 10.4 | 0.00 | 0.34 | 0.34 | 81 | 1015.8 |
| 20260831080012 | 66 | 228 | 5.2 | 11.3 | 0.00 | 0.34 | 0.34 | 84 | 1015.7 |
| 20260831075012 | 66 | 225 | 5.2 | 13.9 | 0.00 | 0.34 | 0.34 | 85 | 1015.7 |
| 20260831074012 | 65 | 250 | 5.2 | 13.9 | 0.00 | 0.34 | 0.34 | 86 | 1015.7 |
| 20260831073013 | 65 | 296 | 3.5 | 10.4 | 0.00 | 0.34 | 0.34 | 89 | 1015.7 |
| 20260831072011 | 64 | 301 | 5.2 | 11.3 | 0.00 | 0.34 | 0.34 | 88 | 1015.6 |
| 20260831071012 | 64 | 225 | 3.5 | 11.3 | 0.00 | 0.34 | 0.34 | 89 | 1015.5 |
| 20260831070012 | 63 | 256 | 6.1 | 13.0 | 0.00 | 0.34 | 0.34 | 90 | 1015.4 |
| 20260831065012 | 63 | 238 | 3.5 | 10.4 | 0.00 | 0.34 | 0.34 | 91 | 1015.3 |
| 20260831064011 | 62 | 223 | 2.6 | 10.4 | 0.00 | 0.34 | 0.34 | 92 | 1015.3 |
| 20260831063012 | 62 | 254 | 3.5 | 10.4 | 0.00 | 0.34 | 0.34 | 92 | 1015.4 |
| 20260831062012 | 62 | 217 | 2.6 | 7.0 | 0.00 | 0.34 | 0.34 | 91 | 1015.2 |
| 20260831061011 | 62 | 194 | 2.6 | 7.0 | 0.00 | 0.34 | 0.34 | 92 | 1014.9 |
| 20260831060012 | 62 | 196 | 3.5 | 10.4 | 0.00 | 0.34 | 0.34 | 92 | 1014.7 |
| 20260831055011 | 62 | 275 | 3.5 | 10.4 | 0.00 | 0.34 | 0.34 | 92 | 1014.6 |
| 20260831054011 | 62 | 278 | 3.5 | 8.7 | 0.00 | 0.34 | 0.34 | 92 | 1014.6 |
| 20260831053011 | 62 | 267 | 4.3 | 16.5 | 0.00 | 0.34 | 0.34 | 92 | 1014.5 |
| 20260831052011 | 62 | 232 | 2.6 | 10.4 | 0.00 | 0.34 | 0.34 | 92 | 1014.2 |
| 20260831051011 | 62 | 257 | 2.6 | 6.1 | 0.00 | 0.34 | 0.34 | 92 | 1014.3 |
| 20260831050011 | 62 | 219 | 1.7 | 3.5 | 0.00 | 0.34 | 0.34 | 92 | 1014.0 |
| 20260831045011 | 61 | 190 | 0.0 | 1.7 | 0.00 | 0.34 | 0.34 | 91 | 1014.0 |
| 20260831044011 | 61 | 190 | 0.0 | 1.7 | 0.00 | 0.34 | 0.34 | 91 | 1013.8 |
| 20260831043011 | 61 | 190 | 0.9 | 2.6 | 0.00 | 0.34 | 0.34 | 91 | 1013.6 |
| 20260831042011 | 61 | 190 | 0.9 | 4.3 | 0.01 | 0.34 | 0.34 | 91 | 1013.4 |
| 20260831041011 | 61 | 186 | 1.7 | 4.3 | 0.01 | 0.34 | 0.34 | 91 | 1013.4 |
| 20260831040011 | 61 | 180 | 0.9 | 3.5 | 0.01 | 0.34 | 0.34 | 91 | 1013.6 |
| 20260831035011 | 61 | 192 | 0.9 | 5.2 | 0.02 | 0.34 | 0.34 | 90 | 1013.6 |
| 20260831034010 | 61 | 191 | 0.9 | 3.5 | 0.04 | 0.34 | 0.34 | 90 | 1013.3 |
| 20260831033011 | 61 | 191 | 0.9 | 4.3 | 0.19 | 0.34 | 0.34 | 89 | 1013.3 |
| 20260831032011 | 61 | 192 | 1.7 | 4.3 | 0.33 | 0.33 | 0.33 | 88 | 1013.4 |
| 20260831031010 | 61 | 194 | 0.9 | 3.5 | 0.33 | 0.33 | 0.33 | 87 | 1013.5 |
| 20260831030010 | 61 | 194 | 2.6 | 6.1 | 0.33 | 0.33 | 0.33 | 86 | 1013.4 |
| 20260831025019 | 61 | 180 | 2.6 | 8.7 | 0.32 | 0.32 | 0.32 | 85 | 1013.6 |
| 20260831024010 | 62 | 240 | 2.6 | 7.8 | 0.30 | 0.30 | 0.30 | 83 | 1013.5 |
| 20260831023011 | 62 | 190 | 4.3 | 11.3 | 0.15 | 0.15 | 0.15 | 81 | 1014.0 |
| 20260831022010 | 61 | 144 | 0.9 | 2.6 | 0.00 | 0.00 | 0.00 | 79 | 1013.0 |
| 20260831021010 | 61 | 124 | 0.9 | 2.6 | 0.00 | 0.00 | 0.00 | 78 | 1012.0 |
| 20260831020010 | 61 | 124 | 0.9 | 2.6 | 0.00 | 0.00 | 0.00 | 79 | 1012.3 |
| 20260831015010 | 61 | 124 | 0.9 | 1.7 | 0.00 | 0.00 | 0.00 | 79 | 1012.5 |
| 20260831014010 | 61 | 124 | 0.0 | 1.7 | 0.00 | 0.00 | 0.00 | 79 | 1012.6 |
| 20260831013010 | 61 | 124 | 0.0 | 1.7 | 0.00 | 0.00 | 0.00 | 79 | 1012.6 |
| 20260831012011 | 61 | 124 | 0.9 | 3.5 | 0.00 | 0.00 | 0.00 | 81 | 1012.7 |
| 20260831011009 | 60 | 124 | 1.7 | 3.5 | 0.00 | 0.00 | 0.00 | 85 | 1012.7 |
| 20260831010010 | 60 | 124 | 1.7 | 3.5 | 0.00 | 0.00 | 0.00 | 86 | 1013.0 |
| 20260831005010 | 59 | 135 | 1.7 | 2.6 | 0.00 | 0.00 | 0.00 | 86 | 1013.2 |
| 20260831004010 | 59 | 135 | 1.7 | 2.6 | 0.00 | 0.00 | 0.00 | 86 | 1013.1 |
| 20260831003010 | 59 | 135 | 1.7 | 3.5 | 0.00 | 0.00 | 0.00 | 86 | 1013.1 |
| 20260831002010 | 59 | 136 | 0.9 | 2.6 | 0.00 | 0.00 | 0.00 | 86 | 1013.5 |
| 20260831001010 | 59 | 136 | 0.9 | 1.7 | 0.00 | 0.00 | 0.00 | 86 | 1013.6 |
| 20260831000010 | 59 | 136 | 0.9 | 2.6 | 0.00 | 0.00 | 0.00 | 85 | 1013.7 |
| 20260830235010 | 59 | 136 | 0.9 | 1.7 | 0.00 | 0.00 | 0.00 | 85 | 1013.7 |
| 20260830234009 | 60 | 136 | 1.7 | 2.6 | 0.00 | 0.00 | 0.00 | 85 | 1013.8 |
| 20260830233010 | 60 | 136 | 1.7 | 2.6 | 0.00 | 0.00 | 0.00 | 85 | 1014.0 |
| 20260830232011 | 60 | 136 | 0.9 | 3.5 | 0.00 | 0.00 | 0.00 | 85 | 1014.0 |
| 20260830231009 | 59 | 212 | 0.0 | 0.0 | 0.00 | 0.00 | 0.00 | 81 | 1014.1 |
| 20260830230010 | 59 | 212 | 0.0 | 0.0 | 0.00 | 0.00 | 0.00 | 81 | 1014.1 |
| 20260830225010 | 59 | 212 | 0.0 | 0.0 | 0.00 | 0.00 | 0.00 | 80 | 1014.1 |
| 20260830224010 | 60 | 212 | 0.0 | 0.0 | 0.00 | 0.00 | 0.00 | 80 | 1014.1 |
| 20260830223010 | 60 | 212 | 0.0 | 0.0 | 0.00 | 0.00 | 0.00 | 78 | 1014.2 |
| 20260830222016 | 60 | 212 | 0.0 | 0.0 | 0.00 | 0.00 | 0.00 | 78 | 1014.2 |
| 20260830221010 | 60 | 212 | 0.0 | 0.0 | 0.00 | 0.00 | 0.00 | 77 | 1014.3 |
| 20260830220009 | 60 | 212 | 0.0 | 0.0 | 0.00 | 0.00 | 0.00 | 76 | 1014.4 |
| 20260830215008 | 60 | 212 | 0.0 | 0.0 | 0.00 | 0.00 | 0.00 | 74 | 1014.5 |
| 20260830214008 | 61 | 212 | 0.0 | 0.0 | 0.00 | 0.00 | 0.00 | 74 | 1014.4 |
| 20260830213009 | 61 | 212 | 0.0 | 0.0 | 0.00 | 0.00 | 0.00 | 73 | 1014.4 |
| 20260830212008 | 61 | 212 | 0.0 | 0.0 | 0.00 | 0.00 | 0.00 | 72 | 1014.3 |
| 20260830211008 | 62 | 212 | 0.0 | 0.0 | 0.00 | 0.00 | 0.00 | 72 | 1014.4 |
| 20260830210008 | 62 | 212 | 0.0 | 0.0 | 0.00 | 0.00 | 0.00 | 72 | 1014.4 |
| 20260830205008 | 62 | 212 | 0.0 | 0.0 | 0.00 | 0.00 | 0.00 | 72 | 1014.5 |
| 20260830204008 | 63 | 212 | 0.0 | 0.0 | 0.00 | 0.00 | 0.00 | 71 | 1014.5 |
| 20260830203013 | 63 | 212 | 0.0 | 0.0 | 0.00 | 0.00 | 0.00 | 71 | 1014.5 |
| 20260830202014 | 63 | 212 | 0.0 | 0.0 | 0.00 | 0.00 | 0.00 | 70 | 1014.5 |
| 20260830201013 | 64 | 212 | 0.0 | 0.0 | 0.00 | 0.00 | 0.00 | 69 | 1014.4 |
| 20260830200013 | 64 | 212 | 0.0 | 0.0 | 0.00 | 0.00 | 0.00 | 69 | 1014.5 |
| 20260830195013 | 65 | 212 | 0.0 | 0.0 | 0.00 | 0.00 | 0.00 | 68 | 1014.5 |
| 20260830194013 | 65 | 212 | 0.0 | 0.0 | 0.00 | 0.00 | 0.00 | 66 | 1014.5 |
| 20260830193013 | 66 | 212 | 0.0 | 0.0 | 0.00 | 0.00 | 0.00 | 65 | 1014.4 |
| 20260830192013 | 67 | 212 | 0.0 | 0.0 | 0.00 | 0.00 | 0.00 | 64 | 1014.4 |
| 20260830191013 | 67 | 212 | 0.0 | 0.0 | 0.00 | 0.00 | 0.00 | 62 | 1014.4 |
| 20260830190013 | 68 | 212 | 0.0 | 0.0 | 0.00 | 0.00 | 0.00 | 60 | 1014.4 |
| 20260830185013 | 68 | 212 | 0.0 | 0.0 | 0.00 | 0.00 | 0.00 | 59 | 1014.4 |
| 20260830184013 | 69 | 212 | 0.0 | 1.7 | 0.00 | 0.00 | 0.00 | 58 | 1014.3 |
| 20260830183013 | 70 | 212 | 0.9 | 2.6 | 0.00 | 0.00 | 0.00 | 57 | 1014.2 |
| 20260830182013 | 70 | 212 | 1.7 | 2.6 | 0.00 | 0.00 | 0.00 | 56 | 1014.2 |
| 20260830181013 | 71 | 212 | 1.7 | 3.5 | 0.00 | 0.00 | 0.00 | 56 | 1014.2 |
| 20260830180013 | 72 | 212 | 1.7 | 3.5 | 0.00 | 0.00 | 0.00 | 55 | 1014.1 |
| 20260830175013 | 72 | 217 | 1.7 | 5.2 | 0.00 | 0.00 | 0.00 | 55 | 1013.9 |
| 20260830174013 | 73 | 233 | 1.7 | 3.5 | 0.00 | 0.00 | 0.00 | 54 | 1013.9 |
| 20260830173013 | 74 | 172 | 1.7 | 5.2 | 0.00 | 0.00 | 0.00 | 54 | 1013.8 |
| 20260830172012 | 74 | 189 | 2.6 | 7.8 | 0.00 | 0.00 | 0.00 | 54 | 1013.7 |
| 20260830171013 | 75 | 226 | 1.7 | 8.7 | 0.00 | 0.00 | 0.00 | 54 | 1013.8 |
| 20260830170012 | 75 | 196 | 3.5 | 8.7 | 0.00 | 0.00 | 0.00 | 54 | 1013.9 |
| 20260830165012 | 75 | 218 | 2.6 | 6.1 | 0.00 | 0.00 | 0.00 | 53 | 1013.8 |
| 20260830164012 | 75 | 225 | 3.5 | 10.4 | 0.00 | 0.00 | 0.00 | 54 | 1013.7 |
| 20260830163012 | 76 | 241 | 4.3 | 9.6 | 0.00 | 0.00 | 0.00 | 54 | 1013.8 |
| 20260830162013 | 76 | 246 | 3.5 | 10.4 | 0.00 | 0.00 | 0.00 | 54 | 1013.8 |
| 20260830161012 | 76 | 183 | 4.3 | 11.3 | 0.00 | 0.00 | 0.00 | 53 | 1013.6 |
| 20260830160012 | 76 | 163 | 3.5 | 7.8 | 0.00 | 0.00 | 0.00 | 53 | 1013.6 |
| 20260830155012 | 76 | 220 | 4.3 | 9.6 | 0.00 | 0.00 | 0.00 | 53 | 1013.8 |
| 20260830154012 | 77 | 219 | 3.5 | 9.6 | 0.00 | 0.00 | 0.00 | 53 | 1013.7 |
| 20260830153012 | 77 | 211 | 3.5 | 9.6 | 0.00 | 0.00 | 0.00 | 53 | 1013.7 |
| 20260830152012 | 76 | 179 | 4.3 | 11.3 | 0.00 | 0.00 | 0.00 | 53 | 1013.9 |
| 20260830151012 | 76 | 192 | 3.5 | 8.7 | 0.00 | 0.00 | 0.00 | 53 | 1014.0 |
| 20260830150013 | 76 | 246 | 3.5 | 7.0 | 0.00 | 0.00 | 0.00 | 54 | 1014.1 |
| 20260830145012 | 76 | 261 | 2.6 | 7.8 | 0.00 | 0.00 | 0.00 | 54 | 1014.2 |
| 20260830144012 | 76 | 297 | 4.3 | 10.4 | 0.00 | 0.00 | 0.00 | 54 | 1014.2 |
| 20260830143012 | 76 | 225 | 4.3 | 11.3 | 0.00 | 0.00 | 0.00 | 52 | 1014.1 |
| 20260830142011 | 77 | 194 | 4.3 | 11.3 | 0.00 | 0.00 | 0.00 | 53 | 1014.3 |
| 20260830141011 | 77 | 283 | 5.2 | 10.4 | 0.00 | 0.00 | 0.00 | 52 | 1014.3 |
| 20260830140012 | 78 | 221 | 5.2 | 11.3 | 0.00 | 0.00 | 0.00 | 52 | 1014.2 |
| 20260830135012 | 78 | 263 | 5.2 | 13.0 | 0.00 | 0.00 | 0.00 | 52 | 1014.3 |
| 20260830134012 | 78 | 201 | 5.2 | 11.3 | 0.00 | 0.00 | 0.00 | 52 | 1014.4 |
| 20260830133011 | 78 | 225 | 6.1 | 13.0 | 0.00 | 0.00 | 0.00 | 53 | 1014.4 |
| 20260830132012 | 78 | 213 | 6.1 | 14.8 | 0.00 | 0.00 | 0.00 | 52 | 1014.5 |
| 20260830131012 | 78 | 219 | 6.1 | 13.0 | 0.00 | 0.00 | 0.00 | 51 | 1014.5 |
| 20260830130012 | 77 | 29 | 5.2 | 14.8 | 0.00 | 0.00 | 0.00 | 52 | 1014.5 |
| 20260830125012 | 77 | 232 | 2.6 | 11.3 | 0.00 | 0.00 | 0.00 | 53 | 1014.5 |
| 20260830124011 | 77 | 12 | 7.0 | 14.8 | 0.00 | 0.00 | 0.00 | 52 | 1014.5 |
| 20260830123012 | 78 | 252 | 6.1 | 13.9 | 0.00 | 0.00 | 0.00 | 50 | 1014.6 |
| 20260830122011 | 79 | 188 | 5.2 | 13.0 | 0.00 | 0.00 | 0.00 | 53 | 1014.7 |
| 20260830121011 | 78 | 208 | 4.3 | 14.8 | 0.00 | 0.00 | 0.00 | 52 | 1014.5 |
| 20260830120012 | 78 | 161 | 7.0 | 15.6 | 0.00 | 0.00 | 0.00 | 52 | 1014.6 |
| 20260830115012 | 78 | 246 | 7.0 | 13.0 | 0.00 | 0.00 | 0.00 | 50 | 1014.7 |
| 20260830114012 | 77 | 249 | 7.0 | 15.6 | 0.00 | 0.00 | 0.00 | 52 | 1014.6 |
| 20260830113011 | 77 | 209 | 7.0 | 14.8 | 0.00 | 0.00 | 0.00 | 50 | 1014.6 |
| 20260830112011 | 77 | 240 | 7.0 | 12.2 | 0.00 | 0.00 | 0.00 | 51 | 1014.7 |